GW5801 Weather Reports


Display with metric or nautical units.
time (UTC)temp
F
wind
direction
speed
MPH
gust
MPH
rain 1hr
in
rain 24hr
in
rain mn
in
humidity
%
barometer
mb
20260510083015 74 243 0.0 0.0 0.00 0.00 0.00 96 1011.4
20260510082512 74 243 0.0 1.0 0.00 0.00 0.00 96 1011.4
20260510082012 74 225 0.0 1.0 0.00 0.00 0.00 96 1011.2
20260510081508 74 228 0.0 0.0 0.00 0.00 0.00 96 1011.2
20260510081004 74 228 0.0 0.0 0.00 0.00 0.00 96 1011.3
20260510080502 74 228 0.0 0.0 0.00 0.00 0.00 96 1011.3
20260510080000 74 228 0.0 0.0 0.00 0.00 0.00 96 1011.3
20260510075457 74 228 0.0 0.0 0.00 0.00 0.00 96 1011.2
20260510074954 74 227 0.0 1.0 0.00 0.00 0.00 95 1011.2
20260510074451 74 226 0.0 1.0 0.00 0.00 0.00 95 1011.2
20260510073947 74 233 0.0 0.0 0.00 0.00 0.00 95 1011.1
20260510073443 75 182 0.0 1.0 0.00 0.00 0.00 95 1011.2
20260510072939 74 207 1.0 2.0 0.00 0.00 0.00 95 1011.2
20260510072437 74 224 0.0 1.0 0.00 0.00 0.00 95 1011.1
20260510071932 74 205 0.0 0.0 0.00 0.00 0.00 95 1011.1
20260510071429 74 205 1.0 1.0 0.00 0.00 0.00 95 1011.1
20260510070927 74 213 0.0 2.0 0.00 0.00 0.00 95 1011.1
20260510070424 74 222 0.0 1.0 0.00 0.00 0.00 94 1011.0
20260510065919 74 204 0.0 1.0 0.00 0.00 0.00 94 1011.2
20260510065416 74 222 0.0 1.0 0.00 0.00 0.00 94 1011.3
20260510064912 74 187 0.0 3.0 0.00 0.00 0.00 94 1011.2
20260510064410 74 173 0.0 2.0 0.00 0.00 0.00 95 1011.1
20260510063907 74 213 0.0 0.0 0.00 0.00 0.00 95 1011.1
20260510063403 74 219 0.0 3.0 0.00 0.00 0.00 95 1011.3
20260510062901 74 188 1.0 4.0 0.00 0.00 0.00 95 1011.4
20260510062355 74 208 0.0 2.0 0.00 0.00 0.00 95 1011.4
20260510061851 75 205 0.0 2.0 0.00 0.00 0.00 95 1011.5
20260510061348 75 209 0.0 1.0 0.00 0.00 0.00 95 1011.4
20260510060844 75 4 0.0 0.0 0.00 0.00 0.00 95 1011.5
20260510060341 75 44 0.0 0.0 0.00 0.00 0.00 95 1011.8
20260510055838 75 44 0.0 0.0 0.00 0.00 0.00 95 1011.6
20260510055336 75 44 0.0 0.0 0.00 0.00 0.00 95 1011.6
20260510054831 75 255 0.0 0.0 0.00 0.00 0.00 95 1011.7
20260510054327 75 201 1.0 2.0 0.00 0.00 0.00 95 1011.9
20260510053822 75 116 0.0 3.0 0.00 0.00 0.00 95 1011.7
20260510053317 75 102 1.0 3.0 0.00 0.00 0.00 95 1011.7
20260510052814 75 164 1.0 1.0 0.00 0.00 0.00 95 1011.7
20260510052310 75 307 0.0 1.0 0.00 0.00 0.00 95 1011.6
20260510051805 75 327 0.0 1.0 0.00 0.00 0.00 95 1011.8
20260510051302 75 193 1.0 1.0 0.00 0.00 0.00 95 1011.8
20260510050759 75 206 1.0 2.0 0.00 0.00 0.00 95 1011.9
20260510050256 76 142 0.0 1.0 0.00 0.00 0.00 95 1011.9
20260510045753 76 105 2.0 2.0 0.00 0.07 0.07 95 1012.0
20260510045249 76 31 1.0 3.0 0.00 0.07 0.07 95 1012.1
20260510044747 76 67 0.0 2.0 0.00 0.07 0.07 95 1012.1
20260510044244 76 73 1.0 3.0 0.00 0.07 0.07 95 1012.2
20260510043740 76 65 1.0 2.0 0.00 0.07 0.07 95 1012.3
20260510043237 76 72 1.0 4.0 0.00 0.07 0.07 95 1012.3
20260510042734 76 48 0.0 1.0 0.00 0.07 0.07 95 1012.6
20260510042229 76 80 3.0 4.0 0.00 0.07 0.07 95 1012.6
20260510041726 76 54 2.0 4.0 0.00 0.07 0.07 95 1012.3
20260510041224 76 89 0.0 2.0 0.00 0.07 0.07 95 1012.5
20260510040720 76 61 1.0 2.0 0.00 0.07 0.07 95 1012.6
20260510040217 76 87 1.0 2.0 0.00 0.07 0.07 95 1012.5
20260510035713 76 82 0.0 0.0 0.00 0.07 0.07 95 1012.6
20260510035209 76 67 0.0 1.0 0.00 0.07 0.07 95 1012.5
20260510034705 76 67 1.0 1.0 0.00 0.07 0.07 94 1012.7
20260510034202 76 66 0.0 0.0 0.00 0.07 0.07 94 1012.2
20260510033659 77 45 0.0 1.0 0.05 0.07 0.07 93 1012.2
20260510033157 77 339 0.0 1.0 0.35 0.07 0.07 93 1012.1
20260510032652 77 108 0.0 1.0 0.28 0.05 0.05 92 1011.9
20260510032148 78 92 1.0 2.0 0.00 0.00 0.00 91 1012.3
20260510031643 78 166 1.0 2.0 0.00 0.00 0.00 91 1012.5
20260510031140 78 21 0.0 1.0 0.00 0.00 0.00 91 1012.5
20260510030634 78 75 1.0 3.0 0.00 0.00 0.00 91 1012.6
20260510030132 78 73 1.0 4.0 0.00 0.00 0.00 91 1012.4
20260510025629 78 34 1.0 3.0 0.00 0.00 0.00 90 1012.1
20260510025126 78 74 1.0 2.0 0.00 0.00 0.00 90 1011.9
20260510024623 78 358 1.0 2.0 0.00 0.00 0.00 90 1011.9
20260510024119 78 107 2.0 4.0 0.00 0.00 0.00 90 1012.0
20260510023615 78 354 2.0 2.0 0.00 0.00 0.00 90 1011.8
20260510023113 78 111 3.0 4.0 0.00 0.00 0.00 89 1011.6
20260510022613 78 71 2.0 4.0 0.00 0.00 0.00 89 1011.6
20260510022108 79 76 3.0 3.0 0.00 0.00 0.00 89 1011.5
20260510021604 79 51 1.0 2.0 0.00 0.00 0.00 88 1011.4
20260510021102 79 76 3.0 3.0 0.00 0.00 0.00 88 1011.2
20260510020601 79 82 2.0 3.0 0.00 0.00 0.00 87 1011.1
20260510020057 79 86 2.0 4.0 0.00 0.00 0.00 86 1010.9
20260510015554 80 95 1.0 4.0 0.00 0.00 0.00 84 1010.7
20260510015050 80 209 1.0 3.0 0.00 0.00 0.00 81 1010.5
20260510014546 80 75 1.0 2.0 0.00 0.00 0.00 79 1010.4
20260510014043 81 38 0.0 1.0 0.00 0.00 0.00 74 1010.2
20260510013538 81 47 0.0 1.0 0.00 0.00 0.00 74 1010.3
20260510013034 81 68 0.0 2.0 0.00 0.00 0.00 75 1010.1
20260510012527 81 52 1.0 2.0 0.00 0.00 0.00 74 1010.0
20260510012025 82 112 0.0 2.0 0.00 0.00 0.00 72 1009.7
20260510011524 82 206 1.0 3.0 0.00 0.00 0.00 71 1009.5
20260510011020 82 233 1.0 3.0 0.00 0.00 0.00 70 1009.2
20260510010517 82 295 0.0 1.0 0.00 0.00 0.00 69 1009.2
20260510010014 82 275 0.0 1.0 0.00 0.00 0.00 69 1009.1
20260510005509 82 138 1.0 3.0 0.00 0.00 0.00 69 1008.9
20260510005008 83 182 0.0 1.0 0.00 0.00 0.00 75 1009.1
20260510004504 83 109 1.0 1.0 0.00 0.00 0.00 75 1009.1
20260510004002 83 224 0.0 1.0 0.00 0.00 0.00 74 1009.1
20260510003459 83 270 0.0 0.0 0.00 0.00 0.00 72 1009.0
20260510002954 83 277 0.0 0.0 0.00 0.00 0.00 71 1008.8
20260510002450 83 219 0.0 1.0 0.00 0.00 0.00 69 1008.9
20260510001947 83 142 0.0 1.0 0.00 0.00 0.00 69 1009.0
20260510001444 84 289 1.0 2.0 0.00 0.00 0.00 69 1009.0
20260510000942 84 79 1.0 1.0 0.00 0.00 0.00 69 1009.0
20260510000440 84 230 0.0 1.0 0.00 0.00 0.00 68 1009.0
20260509235934 84 129 0.0 0.0 0.00 0.00 0.00 67 1008.7
20260509235431 84 74 0.0 2.0 0.00 0.00 0.00 68 1008.4
20260509234928 84 358 0.0 1.0 0.00 0.00 0.00 70 1008.7
20260509234425 84 122 0.0 0.0 0.00 0.00 0.00 71 1008.6
20260509233923 85 20 0.0 0.0 0.00 0.00 0.00 71 1008.7
20260509233420 85 50 1.0 2.0 0.00 0.00 0.00 70 1008.4
20260509232916 86 280 1.0 2.0 0.00 0.00 0.00 70 1008.4
20260509232414 86 121 1.0 2.0 0.00 0.00 0.00 70 1008.5
20260509231909 87 17 1.0 2.0 0.00 0.00 0.00 69 1008.7
20260509231406 87 72 1.0 3.0 0.00 0.00 0.00 69 1008.6
20260509230904 87 33 0.0 2.0 0.00 0.00 0.00 70 1008.6
20260509230401 87 2 0.0 1.0 0.00 0.00 0.00 70 1008.5
20260509225857 87 201 0.0 1.0 0.00 0.00 0.00 71 1008.5
20260509225353 87 10 0.0 1.0 0.00 0.00 0.00 72 1008.2
20260509224849 86 37 0.0 4.0 0.00 0.00 0.00 72 1008.2
20260509224345 87 64 1.0 2.0 0.00 0.00 0.00 71 1008.4
20260509223843 86 38 0.0 2.0 0.00 0.00 0.00 73 1008.4
20260509223339 86 45 0.0 2.0 0.00 0.00 0.00 72 1008.2
20260509222836 87 72 1.0 3.0 0.00 0.00 0.00 71 1008.3
20260509222331 88 71 1.0 2.0 0.00 0.00 0.00 69 1008.3
20260509221827 88 297 0.0 1.0 0.00 0.00 0.00 69 1008.3
20260509221325 88 147 1.0 2.0 0.00 0.00 0.00 68 1008.2
20260509220825 88 252 0.0 3.0 0.00 0.00 0.00 66 1008.1
20260509220321 89 95 0.0 1.0 0.00 0.00 0.00 64 1008.2
20260509215817 90 254 1.0 1.0 0.00 0.00 0.00 64 1008.1
20260509215314 90 347 1.0 2.0 0.00 0.00 0.00 63 1008.1
20260509214811 90 273 1.0 2.0 0.00 0.00 0.00 62 1008.1
20260509214308 91 197 0.0 2.0 0.00 0.00 0.00 61 1008.2
20260509213804 91 88 2.0 3.0 0.00 0.00 0.00 60 1008.2
20260509213300 92 337 0.0 2.0 0.00 0.00 0.00 59 1008.1
20260509212758 93 300 1.0 1.0 0.00 0.00 0.00 56 1008.0
20260509212255 93 348 0.0 0.0 0.00 0.00 0.00 46 1008.0
20260509211750 93 349 0.0 0.0 0.00 0.00 0.00 48 1008.2
20260509211247 94 303 0.0 1.0 0.00 0.00 0.00 47 1008.2
20260509210744 94 310 0.0 2.0 0.00 0.00 0.00 46 1008.0
20260509210242 94 260 0.0 2.0 0.00 0.00 0.00 46 1008.1
20260509205741 94 288 0.0 2.0 0.00 0.00 0.00 48 1008.4
20260509205236 93 298 0.0 1.0 0.00 0.00 0.00 48 1008.1
20260509204732 93 317 1.0 2.0 0.00 0.00 0.00 49 1008.2
20260509204228 91 282 0.0 0.0 0.00 0.00 0.00 53 1008.5
20260509203724 91 99 1.0 2.0 0.00 0.00 0.00 58 1008.4
20260509203223 91 337 1.0 1.0 0.00 0.00 0.00 52 1008.3
20260509202718 91 183 1.0 2.0 0.00 0.00 0.00 53 1008.3
20260509202214 90 295 0.0 2.0 0.00 0.00 0.00 55 1008.4
20260509201709 91 249 1.0 1.0 0.00 0.00 0.00 54 1008.6
20260509201207 91 118 1.0 2.0 0.00 0.00 0.00 53 1008.7
20260509200703 91 198 1.0 1.0 0.00 0.00 0.00 54 1009.0
20260509200203 90 277 0.0 1.0 0.00 0.00 0.00 56 1009.0
20260509195659 91 74 1.0 2.0 0.00 0.00 0.00 54 1008.9
20260509195155 90 271 0.0 0.0 0.00 0.00 0.00 54 1009.0
20260509194654 90 286 0.0 0.0 0.00 0.00 0.00 55 1009.1
20260509194152 90 74 0.0 2.0 0.00 0.00 0.00 55 1008.9
20260509193648 91 334 0.0 1.0 0.00 0.00 0.00 54 1009.0
20260509193143 90 286 1.0 1.0 0.00 0.00 0.00 56 1008.9
20260509192640 91 333 0.0 2.0 0.00 0.00 0.00 54 1008.9
20260509192135 90 324 0.0 0.0 0.00 0.00 0.00 57 1009.1
20260509191635 90 307 1.0 2.0 0.00 0.00 0.00 60 1009.2
20260509191132 90 293 0.0 0.0 0.00 0.00 0.00 57 1008.9
20260509190628 89 317 0.0 0.0 0.00 0.00 0.00 60 1009.0
20260509190126 89 353 1.0 1.0 0.00 0.00 0.00 59 1009.1
20260509185623 89 330 0.0 1.0 0.00 0.00 0.00 58 1009.2
20260509185119 89 275 0.0 1.0 0.00 0.00 0.00 57 1009.4
20260509184618 89 330 0.0 1.0 0.00 0.00 0.00 64 1009.2
20260509184114 89 304 0.0 1.0 0.00 0.00 0.00 61 1009.3
20260509183609 89 258 2.0 2.0 0.00 0.00 0.00 61 1009.4
20260509183105 89 284 1.0 2.0 0.00 0.00 0.00 61 1009.6
20260509182602 88 302 1.0 2.0 0.00 0.00 0.00 63 1009.6
20260509182059 88 308 0.0 1.0 0.00 0.00 0.00 67 1010.0
20260509181557 87 224 1.0 2.0 0.00 0.00 0.00 68 1010.0
20260509181054 87 330 0.0 1.0 0.00 0.00 0.00 69 1009.9
20260509180550 87 235 0.0 1.0 0.00 0.00 0.00 69 1010.1
20260509180047 86 233 0.0 2.0 0.00 0.00 0.00 68 1010.2
20260509175542 86 264 0.0 2.0 0.00 0.00 0.00 73 1010.6
20260509175040 85 292 0.0 2.0 0.00 0.00 0.00 73 1010.7
20260509174536 84 304 0.0 1.0 0.00 0.00 0.00 76 1010.6
20260509174031 83 324 0.0 0.0 0.00 0.00 0.00 77 1010.9
20260509173526 83 289 0.0 0.0 0.00 0.00 0.00 78 1011.0
20260509173022 83 240 0.0 1.0 0.00 0.00 0.00 78 1010.8
20260509172520 83 284 0.0 0.0 0.00 0.00 0.00 79 1011.0
20260509172015 83 250 0.0 1.0 0.00 0.00 0.00 78 1010.7
20260509171512 83 234 0.0 3.0 0.00 0.00 0.00 78 1010.7
20260509171009 83 267 1.0 4.0 0.00 0.00 0.00 78 1010.9
20260509170504 83 267 0.0 2.0 0.00 0.00 0.00 78 1010.7
20260509165959 83 257 0.0 0.0 0.00 0.00 0.00 80 1011.1
20260509165458 83 219 0.0 0.0 0.00 0.00 0.00 80 1010.9
20260509164955 83 219 0.0 1.0 0.00 0.00 0.00 79 1010.9
20260509164450 83 249 0.0 1.0 0.00 0.00 0.00 79 1011.1
20260509163946 83 272 1.0 1.0 0.00 0.00 0.00 78 1011.2
20260509163444 83 301 0.0 0.0 0.00 0.00 0.00 79 1010.8
20260509162943 84 332 0.0 1.0 0.00 0.00 0.00 79 1010.8
20260509162442 83 291 0.0 0.0 0.00 0.00 0.00 79 1010.7
20260509161938 83 242 0.0 1.0 0.00 0.00 0.00 80 1010.7
20260509161434 82 200 0.0 1.0 0.00 0.00 0.00 81 1010.7
20260509160930 82 200 0.0 0.0 0.00 0.00 0.00 82 1010.6
20260509160426 81 200 0.0 1.0 0.00 0.00 0.00 82 1010.7
20260509155921 82 200 1.0 1.0 0.00 0.00 0.00 82 1010.8
20260509155418 82 269 0.0 1.0 0.00 0.00 0.00 82 1011.0
20260509154915 81 331 0.0 0.0 0.00 0.00 0.00 83 1011.0
20260509154411 81 332 0.0 0.0 0.00 0.00 0.00 85 1011.1
20260509153908 80 273 0.0 0.0 0.00 0.00 0.00 86 1010.9
20260509153405 80 259 0.0 1.0 0.00 0.00 0.00 87 1010.3
20260509152902 79 52 1.0 2.0 0.00 0.00 0.00 88 1010.3
20260509152358 79 252 3.0 3.0 0.00 0.00 0.00 88 1010.6
20260509151855 79 221 0.0 2.0 0.00 0.00 0.00 89 1010.2
20260509151350 78 216 0.0 1.0 0.00 0.00 0.00 89 1010.6
20260509150849 78 213 1.0 2.0 0.00 0.00 0.00 90 1010.5
20260509150347 78 334 0.0 0.0 0.00 0.00 0.00 90 1010.2
20260509145844 78 183 0.0 0.0 0.00 0.00 0.00 91 1010.2
20260509145338 78 218 0.0 1.0 0.00 0.00 0.00 91 1010.7
20260509144835 78 219 0.0 2.0 0.00 0.00 0.00 91 1010.6
20260509144332 78 198 0.0 1.0 0.00 0.00 0.00 91 1010.7
20260509143829 78 198 0.0 1.0 0.00 0.00 0.00 91 1011.0
20260509143327 78 222 0.0 1.0 0.00 0.00 0.00 92 1010.9
20260509142822 77 209 1.0 2.0 0.00 0.00 0.00 93 1010.8
20260509142319 77 225 0.0 1.0 0.00 0.00 0.00 95 1010.8
20260509141814 77 250 0.0 1.0 0.00 0.00 0.00 96 1010.4
20260509141312 77 121 1.0 3.0 0.00 0.00 0.00 96 1010.6
20260509140808 77 191 0.0 1.0 0.00 0.00 0.00 96 1010.8
20260509140305 77 191 0.0 1.0 0.00 0.00 0.00 97 1010.7
20260509135803 77 191 0.0 1.0 0.00 0.00 0.00 97 1010.7
20260509135300 76 191 0.0 0.0 0.00 0.00 0.00 98 1010.7
20260509134757 76 191 0.0 0.0 0.00 0.00 0.00 98 1010.6
20260509134255 76 191 0.0 0.0 0.00 0.00 0.00 98 1010.5
20260509133752 76 191 0.0 0.0 0.00 0.00 0.00 98 1010.6
20260509133248 76 191 0.0 0.0 0.00 0.00 0.00 98 1010.6
20260509132747 76 191 0.0 0.0 0.00 0.00 0.00 98 1010.9
20260509132245 76 191 0.0 1.0 0.00 0.00 0.00 98 1011.1
20260509131742 76 191 0.0 0.0 0.00 0.00 0.00 98 1011.1
20260509131238 76 191 0.0 0.0 0.00 0.00 0.00 98 1010.9
20260509130734 76 191 0.0 0.0 0.00 0.00 0.00 98 1010.8
20260509130230 76 190 0.0 0.0 0.00 0.00 0.00 98 1010.8
20260509125727 75 200 0.0 0.0 0.00 0.00 0.00 98 1010.5
20260509125224 75 194 1.0 1.0 0.00 0.00 0.00 98 1010.5
20260509124720 75 207 0.0 0.0 0.00 0.00 0.00 98 1010.8
20260509124217 75 207 0.0 0.0 0.00 0.00 0.00 98 1010.7
20260509123715 75 207 0.0 1.0 0.00 0.00 0.00 98 1010.7
20260509123212 75 263 0.0 0.0 0.00 0.00 0.00 98 1010.7
20260509122707 75 263 0.0 0.0 0.00 0.00 0.00 98 1010.8
20260509122205 75 213 0.0 0.0 0.00 0.00 0.00 98 1010.6
20260509121701 75 213 0.0 0.0 0.00 0.00 0.00 98 1010.5
20260509121159 75 213 0.0 0.0 0.00 0.00 0.00 98 1010.4
20260509120657 75 213 0.0 0.0 0.00 0.00 0.00 98 1010.5
20260509120155 75 213 0.0 0.0 0.00 0.00 0.00 98 1010.5
20260509115652 75 213 0.0 0.0 0.00 0.00 0.00 98 1010.6
20260509115149 75 213 0.0 0.0 0.00 0.00 0.00 98 1010.6
20260509114648 75 214 0.0 0.0 0.00 0.00 0.00 98 1010.6
20260509114147 75 213 0.0 0.0 0.00 0.00 0.00 98 1010.8
20260509113644 75 263 0.0 0.0 0.00 0.00 0.00 98 1010.8
20260509113141 75 263 0.0 0.0 0.00 0.00 0.00 98 1010.6
20260509112638 75 263 0.0 0.0 0.00 0.00 0.00 98 1010.6
20260509112135 75 263 0.0 0.0 0.00 0.00 0.00 98 1010.7
20260509111632 74 263 0.0 0.0 0.00 0.00 0.00 98 1010.5
20260509111129 75 263 0.0 0.0 0.00 0.00 0.00 98 1010.5
20260509110626 75 263 0.0 0.0 0.00 0.00 0.00 98 1010.2
20260509110123 75 263 0.0 0.0 0.00 0.00 0.00 98 1010.2
20260509105621 74 263 0.0 0.0 0.00 0.00 0.00 98 1010.1
20260509105119 74 263 0.0 0.0 0.00 0.00 0.00 98 1009.7
20260509104616 74 263 0.0 0.0 0.00 0.00 0.00 98 1010.0
20260509104112 74 263 0.0 0.0 0.00 0.00 0.00 98 1009.9
20260509103610 74 263 0.0 0.0 0.00 0.00 0.00 98 1010.2
20260509103108 74 263 0.0 0.0 0.00 0.00 0.00 98 1010.0
20260509102605 74 263 0.0 0.0 0.00 0.00 0.00 98 1010.2
20260509102102 74 263 0.0 0.0 0.00 0.00 0.00 98 1010.1
20260509101558 74 263 0.0 0.0 0.00 0.00 0.00 98 1009.9
20260509101055 74 263 0.0 0.0 0.00 0.00 0.00 98 1010.2
20260509100552 74 263 0.0 0.0 0.00 0.00 0.00 98 1010.3
20260509100049 74 263 0.0 0.0 0.00 0.00 0.00 98 1010.0
20260509095545 74 213 0.0 0.0 0.00 0.00 0.00 98 1009.9
20260509095044 74 213 0.0 0.0 0.00 0.00 0.00 98 1009.8
20260509094539 74 213 0.0 0.0 0.00 0.00 0.00 98 1009.8
20260509094037 74 213 0.0 0.0 0.00 0.00 0.00 98 1009.8
20260509093535 74 213 0.0 0.0 0.00 0.00 0.00 98 1009.8
20260509093032 74 213 0.0 0.0 0.00 0.00 0.00 98 1009.6
20260509092530 74 213 0.0 0.0 0.00 0.00 0.00 98 1009.7
20260509092028 74 213 0.0 0.0 0.00 0.00 0.00 98 1009.5
20260509091525 74 213 0.0 0.0 0.00 0.00 0.00 98 1009.5
20260509091022 74 213 0.0 0.0 0.00 0.00 0.00 98 1009.5
20260509090519 73 213 0.0 0.0 0.00 0.00 0.00 98 1009.6
20260509090017 73 213 0.0 0.0 0.00 0.00 0.00 97 1009.5
20260509085514 73 213 0.0 0.0 0.00 0.00 0.00 97 1009.5
20260509085010 73 213 0.0 0.0 0.00 0.00 0.00 97 1009.7
20260509084507 73 213 0.0 0.0 0.00 0.00 0.00 97 1009.5
20260509084004 73 213 0.0 0.0 0.00 0.00 0.00 97 1009.4
20260509083501 73 213 0.0 0.0 0.00 0.00 0.00 97 1009.6